Accueil
METAR-TAF:

METAR-TAF

Aéroports :

Marham, Angleterre

latitude: 52-39N, longitude: 000-34E, altitude: 23 m

Observation

Le bulletin a été fait il y a 1 heure et 8 minutes, à 21:50 UTC
Vent 3 kt de nord-ouest
Température 0°C
Humidité 100%
Pression 1007 hPa
Visibilité: 3300 m
brume

METAR: EGYM 202150Z AUTO 31003KT 3300 BR NCD M00/M00 Q1007

Heure: 22:58 (22:58 UTC)


TAF: absent

Observations et prévisions météorologiques de plus de 4000 aéroports (messages METAR et TAF).

Les stations disponibles sont représentées par des disques jaunes et rouges sur la carte.

Passer la souris dessus pour voir le nom de la station.

Cliquer dessus pour voir les observations et prévisions météorologiques.

Pour changer de carte: cliquez sur les boutons verts avec une croix noire pour zoomer, sur le bouton vert avec un tiret pour effectuer un zoom arrière, ou sur les flèches vertes pour les cartes adjacentes.


METAR-TAF: